Regional Weather Roundup
Issued by NWS

Home | Current Version | Previous Version | Graphics & Text | Print | Product List | Glossary On
Versions: 1 2 3 4 5 6 7 8 9 10 11 12 13 14 15 16 17 18 19 20 21 22 23 24 25 26 27 28 29 30 31 32 33 34 35 36 37 38 39 40 41 42 43 44 45 46 47 48 49 50
000
ASUS43 KMKX 230459
RWRWI

WISCONSIN REGIONAL WEATHER ROUNDUP
NATIONAL WEATHER SERVICE MILWAUKEE/SULLIVAN WI
1100 PM CST SUN JAN 22 2017

NOTE: "FAIR" INDICATES FEW OR NO CLOUDS BELOW 12,000 FEET WITH NO
SIGNIFICANT WEATHER AND/OR OBSTRUCTIONS TO VISIBILITY.

WIZ001-002-006>008-014>016-023>028-230600-
NORTHWEST WISCONSIN

CITY           SKY/WX    TMP DP  RH WIND       PRES   REMARKS
SUPERIOR ARPT  CLOUDY    35  35 100 W5        29.74S WCI  30
ASHLAND        CLOUDY    34  34 100 SW3       29.74S FOG
HAYWARD        FOG       34  32  92 CALM      29.74R VSB 1/2
SIREN          FOG       35  35  99 W3        29.76R VSB 3/4
CUMBERLAND     CLOUDY    34  32  93 W5        29.74S FOG     WCI  30
RICE LAKE      CLOUDY    35  35 100 W5        29.76S FOG     WCI  31
CHETEK         CLOUDY    35  35 100 CALM      29.75S FOG
LADYSMITH      FOG       35  34  99 W5        29.75R VSB 1/2 WCI  31
EAU CLAIRE     CLOUDY    35  34  96 W5        29.75S FOG     WCI  31
MENOMONIE        N/A    N/A N/A N/A MISG        N/A
NEW RICHMOND   FOG       35  35 100 W3        29.77S VSB 1
OSCEOLA        CLOUDY    36  36 100 W6        29.80R FOG     WCI  31
$$

WIZ003>005-009-010-017-018-230600-
NORTH CENTRAL WISCONSIN

CITY           SKY/WX    TMP DP  RH WIND       PRES   REMARKS
MANITOWISH WTR CLOUDY    32  32 100 CALM      29.70S FOG
ARBOR VITAE    CLOUDY    34  33  96 NW3       29.70R
WOODRUFF       CLOUDY    34  33  96 NW3       29.70R
RHINELANDER    CLOUDY    35  34  96 CALM      29.70R
EAGLE RIVER    CLOUDY    33  33 100 CALM      29.69R
LAND O LAKES   CLOUDY    33  33 100 NW3       29.70S
PHILLIPS       CLOUDY    33  33 100 CALM      29.70S
TOMAHAWK       CLOUDY    33  32  96 CALM      29.70S
MEDFORD        CLOUDY    33  33  99 NW5       29.70S WCI  28
MERRILL        CLOUDY    35  35 100 CALM        N/A
$$

WIZ029-030-035-036-043>047-230600-
CENTRAL WISCONSIN

CITY           SKY/WX    TMP DP  RH WIND       PRES   REMARKS
WAUSAU         CLOUDY    35  34  96 NW3       29.70R FOG
MOSINEE        CLOUDY    34  34 100 NW6       29.71S FOG     WCI  29
MARSHFIELD     FOG       34  33  96 W5        29.71R VSB 1/4 WCI  30
STEVENS POINT  CLOUDY    34  34 100 W3        29.72R FOG
WAUPACA        CLOUDY    38  37  96 CALM      29.72R
WAUTOMA        CLOUDY    35  35 100 NW7       29.74R FOG     WCI  29
WISC RAPIDS    CLOUDY    35  35 100 NW5       29.74R FOG     WCI  31
CAMP DOUGLAS   CLOUDY    36  36 100 W6        29.73R FOG     WCI  31
$$

WIZ011>013-019>022-031-037>040-048>050-230600-
NORTHEAST WISCONSIN

CITY           SKY/WX    TMP DP  RH WIND       PRES   REMARKS
ANTIGO         CLOUDY    33  33 100 N6        29.69S WCI  28
SHAWANO        CLOUDY    39  38  95 NW3       29.70R
OCONTO         CLOUDY    34  33  99 CALM      29.71R VSB 1/2
STURGEON BAY   FOG       35  34  96 CALM      29.72R VSB 1/4
GREEN BAY      CLOUDY    36  36 100 CALM      29.71R FOG
MANITOWOC      CLOUDY    37  36  93 NW3       29.71R
APPLETON       CLOUDY    36  36 100 NW6       29.69R FOG     WCI  31
CLINTONVILLE   CLOUDY    36  36 100 W3        29.71R
OSHKOSH        CLOUDY    36  34  92 W3        29.72R
$$

WIZ032>034-041-042-053>061-230600-
SOUTHWEST WISCONSIN

CITY           SKY/WX    TMP DP  RH WIND       PRES   REMARKS
LA CROSSE      CLOUDY    39  36  89 N7        29.76S FOG     WCI  34
SPARTA         CLOUDY    34  34  99 W3        29.75S
VIROQUA        CLOUDY    34  34 100 NW6       29.74R WCI  29
BOSCOBEL       CLOUDY    38  35  89 CALM      29.78R
PRAIRIE DU CHI CLOUDY    37  34  90 NW5       29.77R WCI  33
PLATTEVILLE    CLOUDY    36  36 100 NW8       29.77R WCI  30
$$

WIZ056-057-062-063-064-067-068-230600-
SOUTH CENTRAL WISCONSIN

CITY           SKY/WX    TMP DP  RH WIND       PRES   REMARKS
REEDSBURG      CLOUDY    35  35 100 N3        29.74R
BARABOO/DELLS  CLOUDY    35  35  99 NW6       29.74R FOG     WCI  30
LONE ROCK      NOT AVBL
MINERAL POINT  CLOUDY    36  36 100 NW3       29.75R FOG
MADISON        CLOUDY    36  36 100 NW5       29.75R FOG     WCI  32
MIDDLETON      CLOUDY    37  37 100 NW5       29.74R WCI  34
WATERTOWN      CLOUDY    37  37 100 N5        29.71R WCI  33
MONROE         CLOUDY    36  36 100 NW6       29.73R WCI  31
JANESVILLE     CLOUDY    37  37 100 N3        29.73R
$$

WIZ051-052-058>065-066-070>072-230600-
SOUTHEAST WISCONSIN

CITY           SKY/WX    TMP DP  RH WIND       PRES   REMARKS
MILWAUKEE      CLOUDY    39  34  82 NW3       29.72R
WAUKESHA       CLOUDY    34  34 100 NW3       29.73R FOG
MILWAUKEE/TIMM CLOUDY    36  32  87 CALM      29.73R FOG
RACINE         FOG       37  36  96 E5        29.73R VSB 3/4 WCI  33
KENOSHA        FOG       37  36  96 N5        29.71S VSB 1/2 WCI  33
FOND DU LAC    CLOUDY    36  33  89 CALM      29.72R
SHEBOYGAN      CLOUDY    37  35  92 W7        29.71R WCI  32
WEST BEND      CLOUDY    36  36 100 CALM      29.71R
JUNEAU         CLOUDY    35  34  97 NW3       29.72S FOG
$$

LSZ147-162-230600-
LAKE SUPERIOR

STATION/POSITION TIME  TEMP    WIND        PRES    WAVE
                       AIR SEA DIR/SP/G            HT/PER
                 (UTC) (F)     (DEG/KT/KT) (MB)    (FT/S)
DEVILS ISLAND    0400   35     210/  5/  6 1007.2S
PORT WING        0440   35     200/  3/  4 1007.1S
SAXON HARBOR     0440   33     170/  2/  2 1007.1R
$$

LMZ867-665-643>646-230600-
LAKE MICHIGAN

STATION/POSITION TIME  TEMP    WIND        PRES    WAVE
                       AIR SEA DIR/SP/G            HT/PER
                 (UTC) (F)     (DEG/KT/KT) (MB)    (FT/S)
NORTHPORT PIER   0440   34        CALM     1006.1R
SISTER BAY       0350   33        CALM       N/A
KEWAUNEE LAKESHO 0430   36        CALM     1005.6R
SHEBOYGAN LAKESH 0400   38     290/  5/  6 1005.9R
PORT WASHINGTON  0430   38      CALM  /  1 1007.5R
KENOSHA   LAKESH 0400   36      30/ 10/ 12 1006.4
$$

TC  - TEMPERATURE IN CELSIUS
VSB - VISIBILITY IN STATUTE MILES
WCI - WIND CHILL INDEX
HX  - HEAT INDEX




USA.gov is the U.S. government's official web portal to all federal, state and local government web resources and services.